This demonstration page uses our WeatherBlox Daily Observations layout. Learn more.

Left ArrowRight Arrow

38.88101, -77.10428

Hourly Observations for October 25, 2022

Temp ( °F °C ) Dew Point ( °F °C ) Humidity (%) Winds ( mph kmh ) Pressure ( in mb ) Visibility ( mi km ) Precip ( " mm )
12:52 am 00:52 Cloudy 61 16.1 58 14.4 90 90 Calm 30.11 1020 8 13 0.00 0.00
1:26 am 01:26 Cloudy with Mist and Fog 60 15.6 58 14.4 93 93 Calm 30.10 1019 4 6 0.00 0.00
1:52 am 01:52 Cloudy with Mist and Fog 60 15.6 58 14.4 93 93 Calm 30.10 1019 3 5 0.00 0.00
2:06 am 02:06 Cloudy with Mist and Fog 60 15.6 59 15 96 96 Calm 30.11 1020 2 2 0.00 0.00
2:21 am 02:21 Cloudy with Mist and Fog 60 15.6 59 15 96 96 Calm 30.10 1019 1 2 0.00 0.00
2:52 am 02:52 Cloudy with Drizzle 60 15.6 59 15 96 96 Calm 30.10 1019 1 2 0.01 0.13
3:52 am 03:52 Cloudy with Drizzle 60 15.6 59 15 96 96 Calm 30.10 1019 1 2 0.01 0.13
4:08 am 04:08 Cloudy with Drizzle 60 15.6 59 15 96 96 WNW 3 6 30.10 1019 2 2 0.01 0.13
4:26 am 04:26 Cloudy with Mist and Fog 60 15.6 58 14.4 93 93 WNW 3 6 30.09 1019 2 3 0.01 0.13
4:48 am 04:48 Cloudy with Mist and Fog 61 16 59 15 94 94 Calm 30.09 1019 3 5 0.01 0.13
4:52 am 04:52 Cloudy with Mist and Fog 60 15.6 59 15 96 96 Calm 30.09 1019 3 5 0.01 0.13
5:52 am 05:52 Cloudy with Mist and Fog 60 15.6 59 15 96 96 Calm 30.10 1019 4 6 0.00 0.00
6:20 am 06:20 Cloudy with Mist and Fog 60 15.6 58 14.4 93 93 Calm 30.10 1019 4 6 0.00 0.00
6:52 am 06:52 Cloudy with Mist and Fog 60 15.6 59 15 96 96 Calm 30.10 1019 4 6 0.00 0.00
6:59 am 06:59 Cloudy with Mist and Fog 60 15.6 59 15 96 96 Calm 30.10 1019 4 6 0.00 0.00
7:52 am 07:52 Cloudy with Mist and Fog 61 16.1 58 14.4 90 90 W 5 7 30.10 1019 5 8 0.00 0.00
8:52 am 08:52 Cloudy with Mist and Fog 62 16.7 58 14.4 86 86 Calm 30.11 1020 5 8 0.00 0.00
9:52 am 09:52 Cloudy with Mist and Fog 62 16.7 59 15 90 90 Calm 30.11 1020 5 8 0.00 0.00
10:52 am 10:52 Cloudy with Mist and Fog 62 16.7 58 14.4 86 86 W 6 9 30.11 1020 5 8 0.00 0.00
11:52 am 11:52 Cloudy with Haze 63 17.2 58 14.4 84 84 Calm 30.10 1019 6 10 0.00 0.00
12:52 pm 12:52 Cloudy with Haze 63 17.2 58 14.4 84 84 ESE 3 6 30.09 1019 6 10 0.00 0.00
1:52 pm 13:52 Cloudy 63 17.2 58 14.4 84 84 Calm 30.06 1018 7 11 0.00 0.00
2:08 pm 14:08 Cloudy 64 17.8 58 14.4 80 80 Calm 30.06 1018 8 13 0.00 0.00
2:52 pm 14:52 Cloudy 64 17.8 58 14.4 80 80 SSW 6 9 30.04 1017 8 13 0.00 0.00
3:52 pm 15:52 Cloudy 63 17.2 58 14.4 84 84 S 5 7 30.02 1017 10 16 0.00 0.00
4:52 pm 16:52 Cloudy 63 17.2 58 14.4 84 84 S 3 6 30.01 1016 10 16 0.00 0.00
5:52 pm 17:52 Cloudy 63 17.2 58 14.4 84 84 SE 6 9 30.00 1016 10 16 0.00 0.00
6:52 pm 18:52 Cloudy 62 16.7 58 14.4 86 86 SSE 3 6 30.00 1016 10 16 0.00 0.00
7:52 pm 19:52 Cloudy 62 16.7 59 15 90 90 SE 5 7 30.00 1016 8 13 0.00 0.00
8:52 pm 20:52 Cloudy 61 16.1 59 15 93 93 SE 6 9 29.99 1016 9 14 0.00 0.00
9:36 pm 21:36 Cloudy 61 16.1 58 14.4 90 90 ESE 6 9 29.99 1016 10 16 0.00 0.00
9:52 pm 21:52 Cloudy 60 15.6 58 14.4 93 93 SE 9 15 29.99 1016 9 14 0.00 0.00
10:00 pm 22:00 Cloudy 60 15.6 58 14.4 93 93 SE 7 11 29.99 1016 9 14 0.00 0.00
10:52 pm 22:52 Cloudy 60 15.6 58 14.4 93 93 E 5 7 29.98 1015 8 13 0.00 0.00
11:52 pm 23:52 Cloudy 59 15 58 14.4 96 96 SSE 3 6 29.97 1015 9 14 0.00 0.00

Powered by AerisWeather